Dewpoint
35 29 26 26 27 27 26 26 24 24 28 29 30 29 27 26 26 27 27 26 24 22 21 21 21 21 21 22 22 22 24 24 24 24 23 24 24 25 26 27 28 29 30 34 35 36 37 38 39 40 40 42 45 45 46 46 46 45 44 43 43 42 41 40 40 39 39 38 37 37 36 34 34 33 33 33 33 33 34 34 35 35 35 35 35 35
32 28 28 29 27 27 27 26 26 26 26 26 26 25 24 28 24 26 26 26 25 22 23 24 22 22 22 22 23 24 23 23 23 23 23 23 23 25 26 27 28 28 34 34 35 36 37 38 38 39 39 42 44 44 45 46 46 45 44 43 42 42 40 40 40 40 39 38 38 35 34 33 32 32 32 31 31 31 33 32 31 31 31 31 31 31
28 27 28 29 30 29 29 27 26 26 27 27 25 26 25 25 28 28 28 27 25 24 22 23 23 24 24 25 25 26 23 23 23 24 23 23 23 24 25 26 27 31 32 33 34 36 36 37 38 38 39 42 44 43 45 46 46 45 44 44 43 42 41 41 40 39 37 35 35 33 32 31 29 29 29 29 29 29 28 28 29 29 28 28 28 28
26 30 30 30 31 30 30 29 27 28 27 26 26 24 24 27 25 24 26 27 26 24 24 26 24 25 25 26 26 27 27 26 25 24 25 25 24 24 24 25 27 29 31 32 34 35 36 37 37 38 38 41 42 42 44 45 44 44 43 43 43 42 40 39 38 36 35 33 32 31 30 28 27 26 27 26 27 26 26 26 27 27 27 27 26 26
27 29 32 31 31 30 29 30 28 26 26 28 28 26 26 27 27 24 24 28 29 28 28 25 26 26 26 26 27 28 29 28 28 28 25 26 28 27 29 28 28 27 30 32 33 35 35 36 37 38 38 39 41 42 43 44 42 41 41 41 40 39 38 37 36 34 32 30 29 28 27 26 25 25 25 25 24 25 26 24 24 25 26 26 25 26
29 30 33 31 32 30 30 29 29 29 26 27 29 27 25 27 25 26 29 28 27 27 30 28 26 26 28 29 28 28 29 29 29 29 28 27 25 26 25 26 28 31 31 32 33 34 35 36 37 37 38 38 40 41 43 43 41 40 39 39 38 37 36 35 34 32 31 30 27 27 26 26 25 25 25 25 23 23 23 23 24 23 25 25 24 24
29 32 32 30 31 31 31 29 30 29 27 26 26 30 26 26 28 28 28 27 23 23 28 29 25 25 27 28 29 29 30 30 30 30 29 29 28 25 26 27 28 29 31 32 33 34 35 36 37 37 38 38 40 41 41 41 40 39 38 37 37 36 35 35 33 32 31 29 28 28 28 27 26 25 24 23 23 22 23 22 22 22 23 23 22 22
31 30 31 31 30 31 29 28 30 28 28 26 29 32 29 28 28 28 28 28 28 27 30 28 28 25 26 28 29 29 29 29 30 30 31 31 30 28 25 27 28 29 31 32 33 34 35 36 37 37 37 37 39 40 39 40 39 38 37 36 36 35 34 34 32 31 31 29 29 28 26 26 24 22 21 21 21 21 22 20 20 20 21 21 22 21
30 30 31 31 30 30 29 30 32 29 28 28 31 33 31 29 30 30 28 28 28 27 28 27 28 26 27 28 31 31 29 30 30 30 31 31 32 30 28 28 28 30 31 31 33 34 35 36 37 37 37 37 38 37 38 39 38 37 36 36 35 34 34 33 32 31 31 30 28 26 25 23 22 20 21 22 23 20 20 18 19 19 20 20 21 21
33 32 31 32 31 29 31 32 33 30 28 30 34 34 33 32 31 30 27 28 26 26 26 27 29 25 26 28 29 30 30 29 29 30 30 31 31 31 29 29 29 30 31 31 32 33 35 36 37 37 37 36 36 35 37 37 37 36 36 35 34 34 34 33 32 31 29 28 26 24 22 20 20 20 19 18 17 17 17 16 17 17 18 19 20 21
34 34 33 31 30 31 33 33 34 32 30 35 34 32 31 29 27 26 27 25 24 22 28 28 29 28 26 27 28 28 29 29 29 30 30 30 30 30 29 30 31 31 31 31 32 34 35 36 37 36 36 36 34 34 36 37 36 36 36 35 34 34 34 33 32 29 27 25 23 22 20 19 18 18 16 15 15 15 15 14 15 16 18 19 20 21
31 32 31 32 34 33 32 32 34 35 35 34 29 28 29 29 25 23 21 24 22 23 24 28 29 29 26 26 28 29 30 30 30 29 29 29 29 29 30 30 31 31 31 31 32 34 35 35 36 36 35 34 33 34 35 36 36 35 35 34 34 33 33 32 30 27 25 24 23 20 19 18 17 15 15 12 12 12 12 13 14 17 18 18 20 20
28 29 32 32 36 32 32 32 31 33 33 32 31 30 24 19 21 18 18 19 20 23 22 24 28 27 28 28 28 30 30 30 29 28 29 29 29 29 29 30 31 31 31 31 32 33 34 35 35 35 35 34 33 33 34 35 35 35 34 33 32 32 31 30 27 25 23 23 21 19 18 17 15 14 12 11 11 10 11 12 15 15 15 17 17 18
29 30 32 32 32 34 32 28 28 29 30 31 30 29 25 20 20 16 15 13 18 21 24 25 27 27 27 28 31 30 30 31 31 30 29 28 28 29 29 30 31 31 31 31 32 33 34 34 35 35 34 34 33 33 34 34 34 34 33 31 31 30 30 28 26 24 22 21 20 18 16 15 14 12 11 10 9 10 11 13 12 11 13 13 13 16
22 23 29 32 29 34 31 29 30 30 31 31 30 30 29 24 18 17 17 17 20 20 21 23 22 23 21 25 28 31 31 28 25 26 28 29 29 29 29 31 31 30 30 31 31 32 33 34 34 34 34 33 33 33 33 33 33 33 32 31 30 29 28 27 25 24 22 20 19 17 16 15 13 12 11 10 12 10 12 12 11 12 13 12 14 15
27 25 29 33 33 33 32 34 33 32 31 29 31 31 26 27 27 21 21 18 18 18 18 19 25 25 26 28 29 27 26 25 26 26 27 27 28 29 29 30 30 30 30 31 31 32 33 33 33 34 34 33 33 32 32 32 32 32 31 30 29 28 27 26 25 23 21 19 18 17 16 15 15 16 13 16 16 12 12 12 12 12 13 15 17 20
27 26 31 33 33 32 32 32 32 32 27 29 31 27 30 31 29 24 22 22 21 18 25 17 24 26 27 27 28 28 27 25 24 24 25 26 28 28 29 29 30 30 30 30 31 31 32 32 32 33 33 32 32 32 32 32 31 31 31 29 28 28 27 25 24 23 21 19 18 17 17 17 17 15 12 12 12 12 13 14 14 14 16 19 20 22
26 27 32 30 30 31 30 33 33 33 32 30 27 30 32 33 31 27 22 17 17 20 20 22 24 25 23 24 25 26 27 27 26 25 25 26 27 27 28 29 30 30 30 30 31 31 31 32 32 32 32 32 32 32 32 31 30 30 30 29 28 27 26 25 24 22 21 19 18 18 18 18 16 14 13 13 13 14 15 16 17 19 20 20 22 22
30 23 29 32 31 31 32 33 32 32 33 30 30 33 29 25 24 26 22 20 17 19 19 22 24 25 25 25 23 24 26 26 27 27 25 24 26 27 27 28 29 29 30 30 30 31 31 31 31 31 31 31 31 31 31 31 30 29 28 28 27 27 26 25 24 23 22 20 21 21 19 18 17 16 15 15 16 15 15 16 18 19 19 21 22 21
30 25 27 31 30 30 30 32 29 29 31 32 33 30 31 28 23 24 27 21 22 17 15 21 23 23 27 27 25 26 26 27 26 26 25 25 25 26 27 28 28 29 29 30 30 30 30 30 30 30 30 30 30 30 31 30 29 28 28 27 27 26 26 25 24 23 21 21 21 21 20 19 19 18 17 17 16 15 15 17 18 19 20 20 21 19
31 30 22 28 30 30 29 30 30 31 30 28 29 28 29 26 29 28 25 25 22 15 16 19 22 22 26 28 27 27 26 26 26 27 27 26 25 26 27 28 29 29 29 29 30 30 30 30 30 29 29 30 30 30 30 29 28 27 27 26 26 25 25 24 24 23 22 22 22 21 19 19 19 18 18 17 16 14 16 17 19 19 19 20 19 17
30 28 27 28 28 29 30 31 32 32 31 30 30 30 30 29 24 22 25 26 22 22 22 16 22 20 27 28 28 27 27 27 27 27 28 27 26 27 28 28 28 29 29 29 29 29 30 29 29 29 29 29 29 29 29 29 28 27 26 25 25 25 25 24 24 23 23 23 22 20 19 19 20 19 19 16 15 14 16 17 18 19 20 18 17 16
31 32 30 29 30 30 30 31 32 32 32 31 31 30 32 30 29 24 23 24 23 26 23 20 18 25 28 27 28 28 28 27 27 27 27 28 28 27 27 28 29 29 29 29 29 29 29 29 29 29 28 28 28 29 29 29 28 27 26 25 25 25 24 24 24 23 23 22 21 20 19 20 19 19 17 15 15 14 15 17 18 19 18 16 16 15
35 31 29 29 30 30 30 31 31 31 32 30 29 29 31 30 30 28 28 27 27 24 23 20 22 24 26 29 27 27 26 25 26 26 26 26 26 26 27 28 28 29 29 29 29 29 29 29 29 28 28 28 28 28 28 28 28 27 26 25 24 24 24 24 24 24 23 22 21 19 19 19 19 18 16 15 14 14 15 16 17 19 16 16 15 14
29 31 30 30 26 27 28 30 29 29 29 28 29 31 32 31 31 29 28 25 24 27 27 24 23 25 29 28 26 24 24 24 24 25 26 26 26 27 27 28 29 29 29 29 29 29 29 29 28 28 28 27 27 28 28 28 28 26 25 24 24 24 23 23 23 23 22 21 19 19 19 18 18 17 16 14 14 14 15 15 16 17 14 14 14 14
32 33 31 28 26 24 24 25 27 27 29 29 29 30 30 31 31 28 28 27 26 28 27 26 26 28 27 27 26 25 24 24 26 25 26 27 26 27 28 29 29 29 29 28 28 28 28 28 28 28 27 27 27 27 28 28 28 26 25 24 24 23 23 23 23 22 22 20 19 18 18 18 18 17 15 15 14 14 14 15 16 15 14 14 14 13
31 33 31 30 28 26 27 27 29 30 28 28 28 30 31 32 32 31 30 29 27 26 28 29 28 29 29 26 25 26 24 24 24 25 25 27 27 28 28 28 29 29 29 28 28 28 28 28 28 28 27 27 27 27 27 27 27 26 25 24 23 23 22 22 22 22 21 19 18 18 18 17 17 16 16 15 14 14 14 14 14 14 14 14 13 13
32 32 33 32 31 29 28 30 31 31 29 29 29 29 31 31 31 31 30 29 30 28 27 29 29 29 29 30 31 30 28 26 26 25 25 25 27 28 28 28 32 28 29 28 28 28 28 28 28 27 27 26 26 26 26 27 27 26 24 24 23 22 22 23 22 21 20 18 18 17 17 17 17 16 15 15 14 14 14 14 14 14 14 15 13 12
33 31 34 33 31 30 29 29 31 31 30 30 30 30 30 31 31 30 31 31 30 29 27 29 31 30 30 30 31 31 29 27 27 25 25 25 26 27 27 27 28 29 28 28 28 28 28 27 27 27 26 26 25 25 25 26 26 26 24 23 23 22 21 22 21 20 19 18 17 17 17 16 16 15 15 16 15 15 14 14 14 14 14 14 13 12
32 31 33 34 32 32 31 31 32 31 30 30 30 30 30 30 30 31 31 31 31 30 31 30 30 31 31 30 31 32 32 31 30 28 26 25 26 27 28 28 28 28 28 28 28 28 28 28 27 27 26 25 25 24 25 25 25 25 24 23 22 22 21 21 20 19 18 17 16 16 16 16 16 14 15 15 15 15 15 14 14 14 14 15 13 12
33 31 34 33 32 31 32 33 31 31 31 30 30 31 31 30 30 31 31 31 32 31 31 31 31 31 32 32 32 32 32 32 31 29 27 26 26 27 28 28 28 28 28 28 28 28 28 28 27 27 26 25 24 24 24 25 25 25 24 23 22 21 21 21 20 19 17 17 16 15 15 15 15 14 15 15 15 18 16 15 16 16 15 15 14 14
31 32 32 33 31 31 33 33 32 31 31 31 31 31 30 30 29 29 30 31 31 30 31 31 30 30 31 32 32 31 31 31 30 30 29 28 26 27 28 28 28 28 28 29 28 28 28 28 27 26 26 25 25 24 24 24 24 24 24 23 22 21 21 20 19 18 17 16 15 14 14 15 15 15 15 16 18 18 18 17 16 16 17 17 16 15
32 31 30 32 31 31 33 32 32 32 28 28 31 31 31 31 31 31 31 31 31 32 30 30 30 31 32 32 31 30 31 31 30 30 30 29 28 27 28 28 28 29 29 29 29 29 28 28 27 27 26 26 25 24 24 24 24 24 24 23 22 21 20 20 19 18 18 16 15 14 14 15 15 16 18 18 17 18 18 17 16 16 17 17 17 16
33 33 31 33 31 31 31 32 32 30 26 27 33 35 34 33 32 30 30 31 31 32 31 31 31 32 32 31 31 31 31 31 31 32 32 31 29 27 28 28 29 29 29 29 29 29 28 28 28 27 27 26 25 24 24 24 24 24 24 23 22 20 20 20 19 18 18 17 16 14 14 15 18 18 18 18 18 17 17 16 16 16 17 17 17 16
33 33 32 30 31 31 31 32 30 26 27 33 35 36 35 34 33 32 32 32 31 32 32 31 32 32 32 33 33 33 33 33 32 31 32 31 30 29 28 28 28 29 29 29 29 29 29 29 28 28 27 26 25 24 23 23 23 22 22 22 21 20 20 20 19 19 18 17 15 15 16 16 17 17 17 18 17 17 17 17 17 17 17 17 17 17
33 33 32 32 32 31 30 31 26 25 31 33 35 30 31 34 33 34 33 34 33 33 32 31 31 32 32 33 33 33 33 33 32 32 32 30 29 29 29 29 29 29 29 29 29 29 29 29 28 28 27 27 25 24 22 22 22 21 22 22 22 21 20 20 20 19 18 17 16 15 15 16 18 18 17 17 17 17 17 17 18 18 17 17 16 17
35 35 33 31 33 30 29 30 29 32 31 32 31 28 32 31 32 33 31 32 34 34 34 33 33 33 33 33 33 33 32 30 31 32 31 31 31 30 30 29 29 29 29 29 30 29 30 29 29 28 28 26 25 23 22 22 22 22 22 21 22 22 21 21 20 18 18 18 16 16 15 16 16 17 17 17 17 18 18 18 18 17 17 16 16 15
37 34 35 32 31 33 30 29 29 29 27 30 32 30 32 33 34 34 32 31 33 33 35 34 34 34 34 34 34 32 30 29 32 32 33 31 29 29 28 29 28 29 30 29 29 29 29 29 28 28 27 25 24 23 22 21 22 22 22 22 22 24 23 24 22 20 19 17 19 16 15 15 18 17 17 17 18 18 19 18 18 17 17 16 15 15
36 38 35 33 32 31 31 28 28 26 28 30 28 29 28 28 33 32 30 30 30 30 33 34 34 35 35 34 34 31 30 30 32 32 28 29 29 29 28 28 28 29 29 29 29 28 28 28 28 28 27 25 24 22 22 23 23 23 24 25 24 25 24 24 22 22 21 18 16 15 15 17 18 19 18 18 19 19 19 19 18 18 17 16 15 15
35 35 34 32 32 32 30 29 27 30 29 30 29 26 28 26 32 31 25 27 28 27 26 30 34 34 34 30 29 31 31 31 31 32 29 28 28 27 28 28 28 28 28 28 27 28 27 28 28 27 27 26 24 23 24 24 25 26 25 26 24 25 24 23 22 21 18 17 16 17 19 19 20 20 20 20 20 20 19 19 17 17 17 16 15 14
32 33 34 30 31 31 32 30 31 31 32 30 29 26 24 29 32 29 26 29 28 26 24 26 29 30 28 27 30 31 32 30 27 27 26 27 28 29 29 29 29 28 28 28 28 28 26 27 27 27 27 27 26 26 27 28 28 27 26 26 25 24 23 22 20 20 19 17 18 19 19 20 20 21 21 21 20 20 19 18 19 17 16 15 14 13
32 32 32 33 31 30 31 30 29 31 32 31 26 27 27 31 28 27 25 25 25 24 23 26 27 27 27 30 30 31 28 21 23 25 26 27 28 27 27 27 27 27 28 28 29 27 26 27 28 29 30 30 29 29 29 29 29 28 27 25 24 24 21 21 20 19 19 20 20 20 20 20 21 21 20 20 20 19 18 18 18 18 16 15 14 13
31 31 28 30 31 31 31 30 28 25 31 30 27 25 23 28 29 24 23 21 22 22 24 26 26 26 27 23 22 20 20 21 24 25 25 26 26 26 26 26 26 27 27 27 27 27 27 27 28 29 29 30 30 29 30 29 28 27 26 24 24 23 21 21 21 21 21 20 20 20 20 20 20 20 20 19 20 19 19 17 17 16 15 14 13 12
33 30 30 31 33 28 29 27 27 30 30 30 31 30 28 30 27 23 27 22 23 24 24 25 26 26 25 21 17 17 19 21 22 23 24 24 25 25 25 25 26 26 26 26 27 27 28 26 26 25 26 27 28 29 29 29 28 26 25 24 23 23 23 22 22 21 21 20 20 20 20 20 19 19 19 19 19 19 18 17 17 15 15 14 13 12
33 32 32 31 33 31 30 31 29 29 29 28 26 25 27 27 26 25 27 25 24 23 24 26 26 27 23 17 16 17 16 18 21 22 23 23 23 24 24 24 25 25 24 25 25 26 26 25 24 24 24 25 27 28 29 29 27 25 25 24 24 23 22 22 21 21 21 20 20 20 19 18 19 19 19 19 19 18 18 16 14 15 12 12 13 12
30 31 30 32 30 30 31 30 29 28 29 28 29 28 28 25 25 27 27 26 25 26 25 23 26 28 21 15 16 14 15 16 17 18 20 21 20 20 22 22 23 24 24 25 25 25 25 25 25 24 24 23 24 25 26 26 27 25 25 22 22 22 22 21 21 21 21 19 19 18 16 17 15 16 17 17 19 19 19 17 15 16 14 13 13 13
28 28 29 30 31 31 30 30 30 30 29 29 29 30 30 28 28 27 27 25 22 23 19 20 28 27 22 19 20 14 13 15 16 18 20 19 19 19 21 22 22 23 24 25 24 25 24 24 24 23 23 23 21 22 22 22 21 21 20 21 21 21 21 21 21 20 17 17 16 13 14 16 16 13 12 12 13 14 14 15 16 15 14 13 13 13
29 29 28 29 30 30 28 27 28 26 25 28 29 28 30 30 28 27 26 19 20 20 20 22 25 23 23 18 14 14 13 14 16 17 18 18 18 19 19 20 21 23 23 24 24 25 24 25 24 22 22 22 20 19 19 20 19 16 16 17 18 17 18 19 19 19 17 15 13 13 11 14 12 12 10 8 10 13 10 9 13 15 15 14 13 13
28 31 28 30 30 25 27 26 24 26 29 29 28 28 30 31 30 25 19 16 17 18 18 19 20 22 22 17 13 15 16 13 16 17 18 17 18 18 18 18 20 21 22 22 21 22 24 22 21 20 21 20 18 18 17 16 15 13 14 15 14 16 18 17 14 13 11 9 11 11 8 11 12 11 12 8 2 5 8 13 9 11 8 3 4 7
30 29 28 28 27 26 28 29 25 29 28 31 32 31 30 31 31 24 15 16 17 17 18 19 17 18 19 17 14 17 20 16 15 18 19 18 17 17 17 17 18 20 20 19 19 19 19 18 19 18 17 16 16 16 16 14 12 11 9 7 10 14 15 12 12 10 9 9 9 7 7 7 6 4 7 8 8 5 4 7 17 13 9 8 15 17
28 28 28 28 29 28 28 28 29 31 31 33 33 33 32 31 30 25 15 14 15 17 18 18 16 17 16 17 18 19 17 14 15 17 16 16 17 17 17 18 18 19 20 19 18 17 17 16 17 17 16 15 14 14 13 11 7 7 5 7 8 8 11 12 12 10 8 7 8 8 7 5 5 2 3 2 3 1 5 4 4 17 18 18 17 17